Location: Newark
(17.1333°N, 61.8333°W)
Time: 10:00:16
(UTC+00:00)

ISS - Visible Passes

Search period start: 16 July 2019 00:00
Search period end: 26 July 2019 00:00
Orbit: 409 x 418 km, 51.6° (Epoch: 16 July)

Date Brightness Start Highest point End Pass type
(mag) Time Alt. Az. Time Alt. Az. Time Alt. Az.
16 Jul -0.7 00:52:20 10° W 00:54:33 17° NW 00:56:47 10° N visible
16 Jul -0.6 09:07:06 10° N 09:09:20 17° NE 09:11:33 10° E visible
17 Jul -2.1 00:02:08 10° WSW 00:05:13 35° NW 00:08:19 10° NNE visible
17 Jul -3.8 23:12:36 10° SW 23:15:56 89° NW 23:19:16 10° NE visible
18 Jul -3.5 09:04:08 10° NNW 09:07:24 72° NE 09:10:41 10° SE visible
19 Jul -1.7 08:15:11 10° NNW 08:18:06 29° NE 08:21:00 10° ESE visible
19 Jul -0.7 23:11:24 10° W 23:13:57 20° NW 23:16:30 10° N visible
20 Jul -0.5 07:26:54 10° NNE 07:28:42 14° NE 07:30:30 10° E visible
20 Jul -2.6 09:02:38 10° WNW 09:05:17 22° SW 09:07:56 10° S visible
21 Jul -1.5 08:18:41 14° SSE 08:18:41 14° SSE 08:19:15 10° SSE visible
